EDT,Max TemperatureF,Mean TemperatureF,Min TemperatureF,Max Dew PointF,MeanDew PointF,Min DewpointF,Max Humidity, Mean Humidity, Min Humidity, Max Sea Level PressureIn, Mean Sea Level PressureIn, Min Sea Level PressureIn, Max VisibilityMiles, Mean VisibilityMiles, Min VisibilityMiles, Max Wind SpeedMPH, Mean Wind SpeedMPH, Max Gust SpeedMPH,PrecipitationIn, CloudCover, Events, WindDirDegrees
2013-5-1,77,56,35,37,31,23,89,52,14,30.47,30.42,30.37,10,10,10,15,2,18,0.00,0,,176
2013-5-2,82,60,38,41,36,25,86,53,19,30.49,30.42,30.30,10,10,10,18,4,26,0.00,3,,72
2013-5-3,69,52,35,44,36,26,86,59,32,30.56,30.46,30.37,10,10,10,13,2,18,0.00,0,,107
2013-5-4,73,55,37,44,36,24,100,59,17,30.39,30.32,30.22,10,8,0,15,3,21,0.00,1,Fog,105
2013-5-5,74,54,34,37,33,26,96,57,17,30.33,30.27,30.17,10,10,10,14,2,17,0.00,0,,110
2013-5-6,76,55,34,41,31,15,92,52,11,30.27,30.19,30.10,10,10,10,10,3,17,0.00,0,,148
2013-5-7,81,59,37,48,39,30,92,55,17,30.19,30.13,30.05,10,10,10,12,2,16,0.00,0,,152
2013-5-8,75,60,45,61,56,45,100,82,63,30.21,30.12,30.04,10,8,2,20,3,30,0.90,6,Rain,121
2013-5-9,68,60,51,59,56,52,100,80,59,30.04,29.97,29.88,10,6,0,13,2,16,0.01,7,Fog-Rain-Thunderstorm,152
2013-5-10,76,63,49,61,53,49,100,73,46,29.98,29.93,29.87,10,6,0,12,2,16,0.00,3,Fog,166
2013-5-11,67,62,57,61,58,55,100,91,81,29.86,29.73,29.67,10,9,2,12,4,17,0.08,7,Rain,169
2013-5-12,65,54,43,56,39,20,100,64,28,29.82,29.69,29.61,10,10,10,23,7,31,0.00,5,,270
2013-5-13,52,46,39,34,27,24,79,59,39,30.07,29.95,29.83,10,10,10,20,7,26,0.00,7,,249
2013-5-14,55,44,33,34,29,23,92,62,32,30.10,30.06,30.01,10,10,10,15,4,21,0.00,6,,303
2013-5-15,62,45,28,50,36,27,100,65,29,30.08,29.91,29.67,10,6,0,18,4,24,0.12,5,Fog-Rain-Thunderstorm,154
2013-5-16,77,59,41,48,41,29,100,60,19,29.86,29.70,29.64,10,5,0,28,8,38,0.00,3,Fog,283
2013-5-17,67,53,39,42,37,29,100,63,26,30.25,30.07,29.88,10,10,10,15,4,23,0.00,3,,344
2013-5-18,72,53,33,46,37,33,100,63,25,30.33,30.28,30.22,10,8,0,12,2,14,0.00,2,Fog,71
2013-5-19,68,54,40,55,47,39,100,75,49,30.34,30.28,30.21,10,8,0,14,3,20,0.11,5,Fog-Rain,155
2013-5-20,75,64,53,61,57,53,100,79,57,30.16,30.03,29.96,10,10,7,9,3,,0.00,5,,264
2013-5-21,85,69,52,65,57,50,100,70,40,30.06,29.95,29.83,10,5,0,15,4,21,0.97,6,Fog-Rain-Thunderstorm,32
2013-5-22,73,63,52,67,60,51,100,89,78,29.97,29.88,29.84,10,8,1,9,1,12,0.79,8,Rain-Thunderstorm,160
2013-5-23,75,68,60,67,63,59,100,87,73,29.87,29.81,29.75,10,7,1,16,5,23,0.05,7,Rain,161
2013-5-24,65,55,45,64,54,40,100,87,74,29.93,29.77,29.65,10,8,0,16,6,28,0.37,8,Fog-Rain,270
2013-5-25,46,42,38,41,38,34,92,84,76,29.93,29.87,29.84,10,6,2,20,9,33,0.96,8,Rain,349
2013-5-26,53,44,35,38,36,34,100,75,50,30.12,29.92,29.81,10,10,8,21,7,32,0.01,7,Rain,309
2013-5-27,69,51,32,43,35,30,100,64,27,30.22,30.13,30.10,10,6,0,20,4,30,0.00,2,Fog,308
2013-5-28,72,54,35,49,39,35,100,64,27,30.27,30.22,30.14,10,7,0,10,3,16,0.00,2,Fog,139
2013-5-29,63,59,55,61,57,50,100,92,83,30.15,30.06,29.99,10,5,0,7,1,10,0.37,8,Fog-Rain-Thunderstorm,181
2013-5-30,86,72,57,67,60,57,100,72,44,30.10,30.06,30.02,10,5,0,16,4,21,0.00,4,Fog,273
2013-5-31,91,75,58,66,61,54,100,65,29,30.12,30.06,29.94,10,5,0,14,3,20,0.00,3,Fog,247